SWOT

Last updated on Mon Sep 21 2026 00:02:46 GMT+0000 (Coordinated Universal Time)

1 54754U 22173A 26263.45110328 .00000017 00000+0 12967-4 0 9999 2 54754 77.6074 266.7089 0000199 190.1978 169.9169 14.00171916192485
UTC large
Height (km)
Speed (km/s)
/
Latitude / Longitude
Inclination (degrees)
Orbital Period (minutes)
Azimuth
Elevation
Range (km)
Doppler Factor

Next 0 passes for location: London (51.5072 / 0.1276)

No passes found over London.
SWOT